[[{"header":{"parameterUnit":"m.s-1","parameterCategory":1,"la1":30.2991,"la2":30.254,"lo1":-89.0895,"lo2":-89.0444,"dy":0.0017,"dx":0.0017,"nx":28,"ny":28,"refTime":"2025-07-31T21:00:00:Z","depth":0,"parameterNumber":2,"parameterNumberName":"U-component_of_WINDS"},"data":[0,0,0,0,0,0,0,0,0,0,0,0,0,0,0,0,0,0,0,0,0,0,0,0,0,0,0,0,0,0,0,0,0,0,0,0,0,0,0,0,0,0,0,0,0,0,0,0,0,0,0,0,0,0,0,0,0,0,0.3102,0.3103,0,0.3122,0.3122,0.3122,0.3143,0.3144,0.3144,0.3144,0.3164,0.3164,0.3165,0,0,0,0,0,0,0,0,0,0,0,0,0,0.3087,0.3087,0.3102,0.3103,0.3103,0.3122,0.3122,0.3122,0.3143,0.3144,0.3144,0.3144,0.3164,0.3164,0.3165,0,0,0,0,0,0,0,0,0,0,0,0,0,0.3099,0.3087,0.3102,0.3116,0.3117,0.3121,0.3122,0.3122,0.3143,0.3144,0.3144,0.3145,0.3164,0.3164,0.3165,0.3158,0,0,0.3166,0.3166,0,0,0,0,0,0,0,0,0.3098,0.3099,0.3113,0.3115,0.3116,0.3131,0.3124,0.3134,0.3143,0.3133,0.3144,0.3145,0.3153,0.3154,0.3157,0.3158,0.3159,0.3166,0.3166,0.3166,0.3166,0,0,0,0,0,0,0,0.3097,0.3098,0.311,0.3114,0.3115,0.3122,0.3124,0.3126,0.314,0.3134,0.3136,0.3138,0.3153,0.3156,0.3157,0.316,0.3166,0.3166,0.3166,0.3166,0.3161,0.316,0,0,0,0,0,0,0.3094,0.3098,0.3109,0.3111,0.3108,0.3122,0.3124,0.3125,0.314,0.3143,0.3137,0.3139,0.3155,0.3157,0.3158,0.3153,0.3166,0.3167,0.3167,0.3161,0.3161,0.316,0,0,0,0,0,0,0.3094,0.3095,0.3109,0.3105,0.3107,0.3121,0.3123,0.3126,0.3128,0.3143,0.3145,0.3137,0.3156,0.3157,0.3158,0.3154,0.3167,0.3167,0.3162,0.3161,0.316,0.314,0,0,0,0,0,0,0.3093,0.3094,0.3091,0.3104,0.3107,0.3108,0.3122,0.3126,0.3129,0.3131,0.3143,0.3146,0.3156,0.3158,0.3159,0.3154,0.3167,0.3162,0.3161,0.3161,0.3142,0.3139,0.3137,0,0,0,0,0,0.3092,0.3084,0.3091,0.3092,0.3103,0.3107,0.3109,0.3121,0.3128,0.3126,0.3136,0.3145,0.3154,0.3158,0.3159,0.3154,0.3162,0.3161,0.3161,0.3143,0.314,0.3137,0,0,0,0,0,0,0.3069,0.3086,0.3093,0.3089,0.3097,0.3111,0.3107,0.3117,0.3123,0.3124,0.314,0.3142,0.3142,0.3148,0.3152,0.315,0.316,0.3159,0.3146,0.3143,0.3141,0.3139,0.3168,0,0,0,0,0,0.3063,0.3065,0.308,0.3074,0.3078,0.3092,0.3094,0.3104,0.3112,0.3115,0.3125,0.3133,0.3139,0.3141,0.3146,0.3143,0.3148,0.3141,0.3139,0.3137,0.3136,0.3138,0.3136,0.3157,0.3158,0.3158,0,0,0.3051,0.3061,0.3061,0.307,0.3077,0.308,0.3095,0.3096,0.3098,0.3116,0.3117,0.3125,0.3136,0.3135,0.3136,0.3141,0.3132,0.3136,0.3135,0.3135,0.3137,0.3135,0.3133,0.3157,0.3157,0.3157,0,0,0.3031,0.3038,0.3035,0.3043,0.3054,0.3064,0.3063,0.3077,0.3083,0.3085,0.3099,0.3103,0.311,0.3118,0.3123,0.3111,0.3121,0.3112,0.31,0.3102,0.31,0.3099,0.3096,0.3094,0.3111,0.3111,0.3111,0,0.3014,0.3018,0.3032,0.3034,0.3039,0.3056,0.3055,0.3061,0.3073,0.3077,0.3082,0.3095,0.3103,0.3106,0.3103,0.3106,0.3107,0.311,0.3099,0.3098,0.3097,0.3094,0.3093,0.311,0.311,0.311,0.311,0,0.2999,0.3001,0.2998,0.3011,0.3015,0.3015,0.3031,0.3034,0.3044,0.3054,0.3058,0.3069,0.3078,0.3079,0.3088,0.3085,0.3088,0.3096,0.3106,0.3094,0.3091,0.309,0.3109,0.3109,0.3109,0.3109,0,0,0.2961,0.2984,0.2983,0.299,0.3005,0.3008,0.301,0.3019,0.3023,0.3031,0.3035,0.3043,0.3052,0.3057,0.3068,0.3069,0.3061,0.3078,0.3079,0.3075,0.306,0.3054,0.3052,0.3068,0.3068,0.3068,0.306,0,0.2944,0.2948,0.2963,0.2963,0.2967,0.2986,0.2988,0.2998,0.3009,0.3015,0.3026,0.3032,0.3043,0.3047,0.3049,0.3061,0.3058,0.3062,0.3073,0.3073,0.3069,0.3051,0.3043,0.3035,0.3059,0.3059,0.3058,0,0.2924,0.2933,0.2933,0.2951,0.2954,0.2955,0.2967,0.2972,0.2985,0.2993,0.3001,0.3014,0.3019,0.3029,0.3038,0.304,0.3046,0.3053,0.3053,0.3054,0.3064,0.3052,0.3032,0.3031,0.3057,0.3057,0.3057,0,0.2898,0.291,0.2913,0.2919,0.2939,0.294,0.2949,0.2963,0.2969,0.2979,0.2984,0.2995,0.3001,0.301,0.3026,0.3031,0.3034,0.3044,0.3041,0.3041,0.304,0.304,0.3021,0.3043,0.3043,0.3043,0.3043,0,0.2878,0.2878,0.2902,0.2904,0.2905,0.2924,0.2925,0.2936,0.2949,0.2954,0.2971,0.2975,0.2996,0.3004,0.3017,0.3024,0.3026,0.3034,0.3037,0.3032,0.3031,0.3035,0.3037,0.3043,0.3043,0.3043,0.3043,0,0.2848,0.2865,0.2869,0.2889,0.2895,0.2895,0.2913,0.2916,0.2929,0.2936,0.2938,0.2958,0.2969,0.2986,0.3002,0.3011,0.3015,0.3021,0.301,0.3013,0.3009,0.3009,0.2992,0.2992,0.3014,0.3014,0.3013,0,0.2834,0.2835,0.2856,0.2861,0.2869,0.2876,0.2883,0.2902,0.2909,0.2926,0.2928,0.294,0.295,0.2967,0.2983,0.2996,0.3002,0.2996,0.3004,0.3,0.3004,0.3004,0.3005,0.2993,0.2993,0.2993,0.2993,0,0.2807,0.2816,0.2825,0.2838,0.2845,0.2856,0.2867,0.2871,0.2893,0.29,0.2911,0.2919,0.2936,0.2949,0.2965,0.2975,0.2988,0.299,0.299,0.2985,0.298,0.2984,0.3005,0.299,0.299,0.2991,0.2991,0.2991,0.2786,0.2789,0.2805,0.2815,0.2826,0.2837,0.2842,0.2856,0.2866,0.2881,0.2892,0.2903,0.292,0.2943,0.2953,0.2963,0.2969,0.2969,0.2969,0.2968,0.2967,0.2979,0.2966,0.2966,0.2966,0.2966,0.2966,0,0.2761,0.2773,0.2782,0.2799,0.2807,0.282,0.2834,0.2841,0.285,0.2865,0.2876,0.289,0.2903,0.2922,0.2937,0.2942,0.2949,0.2945,0.2945,0.2948,0.2961,0.2959,0.294,0.294,0.294,0.294,0.294,0.294,0.2749,0.2755,0.2766,0.2779,0.2791,0.2802,0.281,0.2821,0.2833,0.2848,0.286,0.2872,0.2889,0.2906,0.292,0.2925,0.293,0.2925,0.2933,0.2944,0.2947,0.2949,0.2948,0.2926,0.2926,0.2919,0.2919,0.2919]},{"header":{"parameterUnit":"m.s-1","parameterCategory":1,"la1":30.2991,"la2":30.254,"lo1":-89.0895,"lo2":-89.0444,"dy":0.0017,"dx":0.0017,"nx":28,"ny":28,"refTime":"2025-07-31T21:00:00:Z","depth":0,"parameterNumber":3,"parameterNumberName":"V-component_of_WINDS"},"data":[0,0,0,0,0,0,0,0,0,0,0,0,0,0,0,0,0,0,0,0,0,0,0,0,0,0,0,0,0,0,0,0,0,0,0,0,0,0,0,0,0,0,0,0,0,0,0,0,0,0,0,0,0,0,0,0,0,0,-2.1869,-2.187,0,-2.1915,-2.1916,-2.1916,-2.1924,-2.1924,-2.1923,-2.1923,-2.1967,-2.1969,-2.197,0,0,0,0,0,0,0,0,0,0,0,0,0,-2.1784,-2.1786,-2.1869,-2.187,-2.187,-2.1915,-2.1916,-2.1916,-2.1924,-2.1924,-2.1923,-2.1923,-2.1967,-2.1968,-2.197,0,0,0,0,0,0,0,0,0,0,0,0,0,-2.1825,-2.1786,-2.1869,-2.188,-2.1881,-2.1915,-2.1916,-2.1916,-2.1924,-2.1924,-2.1923,-2.1923,-2.1966,-2.1968,-2.1971,-2.1996,0,0,-2.1978,-2.1979,0,0,0,0,0,0,0,0,-2.1822,-2.1828,-2.1877,-2.1879,-2.1881,-2.1913,-2.1902,-2.1943,-2.1924,-2.1908,-2.1923,-2.1922,-2.195,-2.1953,-2.1963,-2.1998,-2.2,-2.1978,-2.1979,-2.198,-2.1981,0,0,0,0,0,0,0,-2.1819,-2.1826,-2.1887,-2.1878,-2.188,-2.1881,-2.1886,-2.191,-2.1931,-2.1909,-2.191,-2.1915,-2.195,-2.1961,-2.1964,-2.2001,-2.1978,-2.198,-2.1981,-2.1982,-2.2057,-2.2057,0,0,0,0,0,0,-2.1815,-2.1823,-2.1886,-2.1889,-2.185,-2.1883,-2.1889,-2.1903,-2.1931,-2.1935,-2.1916,-2.1916,-2.1957,-2.1961,-2.1966,-2.1996,-2.198,-2.1982,-2.1984,-2.2056,-2.2057,-2.2058,0,0,0,0,0,0,-2.1813,-2.1821,-2.1884,-2.1856,-2.1864,-2.1885,-2.1901,-2.1905,-2.1915,-2.1936,-2.194,-2.1923,-2.1957,-2.1962,-2.1988,-2.1998,-2.1983,-2.1985,-2.2056,-2.2057,-2.2057,-2.2058,0,0,0,0,0,0,-2.1811,-2.182,-2.1831,-2.1856,-2.1866,-2.1907,-2.1902,-2.1906,-2.1919,-2.1919,-2.1944,-2.1947,-2.1957,-2.1985,-2.199,-2.2001,-2.1987,-2.2055,-2.2056,-2.2057,-2.2057,-2.2059,-2.206,0,0,0,0,0,-2.1808,-2.1829,-2.1832,-2.1839,-2.188,-2.1908,-2.1913,-2.1924,-2.192,-2.193,-2.1944,-2.1946,-2.1996,-2.1987,-2.1994,-2.2005,-2.2054,-2.2056,-2.2057,-2.2056,-2.2058,-2.206,0,0,0,0,0,0,-2.1804,-2.1833,-2.1836,-2.1866,-2.1884,-2.1909,-2.1922,-2.1926,-2.1946,-2.1945,-2.1958,-2.1963,-2.1988,-2.1999,-2.1989,-2.203,-2.2024,-2.2027,-2.2022,-2.2024,-2.2025,-2.2022,-2.1989,0,0,0,0,0,-2.1806,-2.1827,-2.1851,-2.1875,-2.1885,-2.1902,-2.1914,-2.1922,-2.1941,-2.1948,-2.1963,-2.1981,-2.2,-2.2013,-2.2032,-2.2059,-2.2063,-2.2069,-2.2071,-2.2072,-2.2074,-2.2087,-2.2089,-2.2062,-2.2062,-2.2062,0,0,-2.1812,-2.183,-2.1843,-2.1875,-2.189,-2.191,-2.1908,-2.193,-2.1944,-2.1951,-2.1976,-2.1988,-2.2008,-2.2034,-2.2046,-2.2044,-2.2082,-2.2073,-2.2074,-2.2076,-2.2089,-2.2091,-2.2093,-2.2063,-2.2063,-2.2063,0,0,-2.1832,-2.1849,-2.187,-2.1885,-2.1908,-2.1919,-2.1924,-2.1948,-2.1956,-2.1982,-2.1987,-2.2004,-2.2037,-2.2051,-2.2062,-2.2086,-2.2088,-2.2092,-2.2099,-2.2112,-2.2114,-2.2116,-2.2123,-2.2125,-2.2094,-2.2094,-2.2094,0,-2.1836,-2.1868,-2.1881,-2.1902,-2.1915,-2.1923,-2.1943,-2.1957,-2.1984,-2.1993,-2.199,-2.2031,-2.2045,-2.2074,-2.2079,-2.2089,-2.2094,-2.2089,-2.2113,-2.2115,-2.2117,-2.2124,-2.2126,-2.2094,-2.2094,-2.2094,-2.2094,0,-2.187,-2.1892,-2.1906,-2.1933,-2.1948,-2.1969,-2.1983,-2.1997,-2.2002,-2.2013,-2.2038,-2.2055,-2.2077,-2.2084,-2.209,-2.2113,-2.2111,-2.211,-2.2105,-2.2119,-2.2126,-2.2129,-2.2094,-2.2094,-2.2094,-2.2094,0,0,-2.189,-2.1923,-2.1928,-2.1939,-2.1964,-2.1981,-2.2001,-2.2023,-2.2033,-2.2052,-2.2068,-2.2095,-2.2095,-2.2107,-2.2114,-2.2126,-2.2141,-2.2124,-2.2124,-2.2125,-2.2166,-2.2166,-2.2169,-2.2143,-2.2144,-2.2144,-2.2164,0,-2.1912,-2.195,-2.1961,-2.1992,-2.2011,-2.2018,-2.2035,-2.2051,-2.2062,-2.2078,-2.2089,-2.2108,-2.2106,-2.2114,-2.2125,-2.2137,-2.215,-2.2136,-2.2157,-2.2158,-2.2151,-2.2172,-2.2172,-2.219,-2.2167,-2.2167,-2.2168,0,-2.1944,-2.1963,-2.1995,-2.2017,-2.2025,-2.2041,-2.2061,-2.2077,-2.2095,-2.2102,-2.2115,-2.2121,-2.2141,-2.2135,-2.2161,-2.2151,-2.2161,-2.2167,-2.2168,-2.217,-2.2163,-2.2174,-2.2196,-2.2198,-2.2172,-2.2172,-2.2171,0,-2.1953,-2.1987,-2.201,-2.202,-2.2046,-2.2056,-2.2067,-2.2085,-2.2097,-2.2114,-2.2122,-2.2141,-2.2151,-2.2165,-2.2175,-2.217,-2.22,-2.2195,-2.2204,-2.2204,-2.221,-2.2209,-2.2233,-2.2217,-2.2217,-2.2217,-2.2217,0,-2.1976,-2.1995,-2.2015,-2.2029,-2.205,-2.2063,-2.2083,-2.2094,-2.2109,-2.2125,-2.2132,-2.2146,-2.2159,-2.2174,-2.2182,-2.2202,-2.2207,-2.2211,-2.2213,-2.221,-2.221,-2.2216,-2.2215,-2.2218,-2.2218,-2.2218,-2.2218,0,-2.199,-2.2004,-2.203,-2.2052,-2.2058,-2.2072,-2.209,-2.2104,-2.2114,-2.2133,-2.2139,-2.2154,-2.2173,-2.2184,-2.2208,-2.2213,-2.2234,-2.2236,-2.2228,-2.2229,-2.2237,-2.2236,-2.2266,-2.227,-2.2252,-2.2252,-2.2252,0,-2.2003,-2.2018,-2.2042,-2.2053,-2.2064,-2.2083,-2.2095,-2.2107,-2.2119,-2.214,-2.215,-2.2169,-2.2185,-2.2214,-2.2226,-2.2244,-2.2245,-2.2254,-2.2248,-2.2244,-2.2244,-2.2243,-2.2244,-2.2255,-2.2255,-2.2256,-2.2256,0,-2.2025,-2.2031,-2.2049,-2.2069,-2.2084,-2.21,-2.2116,-2.2124,-2.2138,-2.2151,-2.2171,-2.2183,-2.2207,-2.2225,-2.2243,-2.2253,-2.2256,-2.2258,-2.2261,-2.2258,-2.2252,-2.2254,-2.223,-2.2257,-2.2257,-2.2257,-2.2257,-2.2257,-2.2039,-2.2052,-2.207,-2.2089,-2.2103,-2.2117,-2.213,-2.2142,-2.2159,-2.218,-2.2185,-2.2205,-2.2221,-2.2246,-2.2256,-2.227,-2.2269,-2.2274,-2.2275,-2.2275,-2.2275,-2.225,-2.2274,-2.2274,-2.2274,-2.2274,-2.2274,0,-2.206,-2.2072,-2.209,-2.2112,-2.2126,-2.2129,-2.2147,-2.2158,-2.2176,-2.2191,-2.2206,-2.2227,-2.2244,-2.2258,-2.2276,-2.2284,-2.2286,-2.2289,-2.2288,-2.229,-2.2276,-2.2271,-2.2287,-2.2287,-2.2287,-2.2287,-2.2287,-2.2287,-2.2073,-2.2095,-2.2103,-2.213,-2.2142,-2.2162,-2.2171,-2.2184,-2.2196,-2.222,-2.2234,-2.2243,-2.2257,-2.2276,-2.2291,-2.2295,-2.23,-2.2302,-2.2306,-2.2292,-2.2291,-2.2289,-2.2285,-2.2303,-2.2303,-2.2318,-2.2318,-2.2318]}]]